Location: Observatoire du C�gep de Trois-Rivi�res � Champlain
(46.4753°N, 72.3231°W)
Time: 02:27:16
(UTC-05:00)

Envisat - Visible Passes

Search period start: 19 January 2018 00:00
Search period end: 29 January 2018 00:00
Orbit: 764 x 766 km, 98.2° (Epoch: 18 January)

Date Brightness Start Highest point End Pass type
(mag) Time Alt. Az. Time Alt. Az. Time Alt. Az.
19 Jan 4.5 17:45:47 15° ENE 17:45:47 15° ENE 17:48:38 10° NNE visible
19 Jan 3.9 19:25:58 40° NNW 19:25:58 40° NNW 19:29:11 10° NNW visible
20 Jan 3.5 18:48:34 40° NNE 18:48:34 40° NNE 18:52:18 10° N visible
20 Jan 5.4 20:28:46 19° WNW 20:28:46 19° WNW 20:30:48 10° NW visible
21 Jan 6.1 06:50:30 10° ENE 06:52:46 13° E 06:55:03 10° ESE visible
21 Jan 4.0 18:11:10 24° ENE 18:11:10 24° ENE 18:15:01 10° N visible
21 Jan 4.3 19:51:21 36° NW 19:51:21 36° NW 19:54:40 10° NNW visible
22 Jan 4.7 17:33:45 12° ENE 17:34:46 13° NE 17:36:54 10° NNE visible
22 Jan 3.2 19:13:56 58° N 19:13:56 58° N 19:18:03 10° N visible
22 Jan 5.8 20:54:07 13° WNW 20:54:07 13° WNW 20:55:19 10° NW visible
23 Jan 3.4 18:36:31 38° ENE 18:36:31 38° ENE 18:41:04 10° N visible
23 Jan 4.9 20:16:42 27° WNW 20:16:42 27° WNW 20:19:55 10° NNW visible
24 Jan 4.2 17:59:05 19° ENE 17:59:59 20° ENE 18:03:37 10° NNE visible
24 Jan 3.5 19:39:16 56° WNW 19:39:16 56° WNW 19:43:36 10° NNW visible
25 Jan 4.8 17:23:04 10° ENE 17:23:48 10° NE 17:24:33 10° NE visible
25 Jan 2.9 19:01:50 63° ENE 19:01:50 63° ENE 19:06:52 10° N visible
25 Jan 5.5 20:42:01 18° W 20:42:01 18° W 20:44:45 10° NW visible
26 Jan 3.7 18:24:23 29° E 18:25:19 31° ENE 18:29:46 10° N visible
26 Jan 4.3 20:04:34 37° W 20:04:34 37° W 20:08:58 10° NNW visible
27 Jan 4.4 17:46:56 13° E 17:48:59 17° ENE 17:52:08 10° NNE visible
27 Jan 3.0 19:27:07 75° SW 19:27:24 78° WSW 19:32:31 10° NNW visible
27 Jan 6.0 21:07:18 10° W 21:07:18 10° W 21:07:47 10° W visible
28 Jan 3.1 18:49:40 43° ESE 18:50:45 51° ENE 18:55:40 10° N visible
28 Jan 5.1 20:29:50 22° W 20:30:03 22° W 20:34:00 10° NW visible
